Weather History for LIMH - October, 2013

Change the Weather History Date:

Tuesday, October 15, 2013

  Actual Average Record
Temperature  
Mean Temperature 24 °F -  
Max Temperature 27 °F 26 °F 37 °F (2005)
Min Temperature 20 °F 18 °F 10 °F (2004)
Degree Days  
Heating Degree Days 42    
Moisture  
Dew Point 17 °F    
Average Humidity 73    
Maximum Humidity 86    
Minimum Humidity 52    
Precipitation  
Precipitation 0.02 in - - ()
Sea Level Pressure  
Sea Level Pressure 30.10 in    
Wind  
Wind Speed 7 mph ()    
Max Wind Speed 14 mph    
Max Gust Speed 28 mph    
Visibility 0.8 miles    
Events Fog , Snow    
Averages and records for this station are not official NWS values.
T = Trace of Precipitation, MM = Missing Value Source: Averaged Metar Reports

Daily Weather History Graph

Daily Weather History Graph

Search for Another Location

Airport or City:

Trip Planner

Search our weather history database for the weather conditions in past years. The results will help you decide how hot, cold, wet, or windy it might be!

Date:

Astronomy

Oct. 15, 2013 Rise Set
Actual Time 7:45 AM CEST 6:43 PM CEST
Civil Twilight 7:15 AM CEST 7:13 PM CEST
Nautical Twilight 6:41 AM CEST 7:47 PM CEST
Astronomical Twilight 6:06 AM CEST 8:22 PM CEST
Moon 4:48 PM CEST (10/15) 3:39 AM CEST (10/15)
Length of Visible Light 11h 57m
Length of Day
10h 57m
Waxing Gibbous, 85% of the Moon is Illuminated
Oct 15
Waxing Gibbous
Oct 19
Full
Oct 27
Last Quarter
Nov 3
New
Nov 10
First Quarter

Hourly Weather History & Observations

Time (CEST) Temp. Windchill Dew Point Humidity Pressure Visibility Wind Dir Wind Speed Gust Speed Precip Events Conditions
12:55 AM 21.2 °F 8.3 °F 17.6 °F 86% 30.18 in 0.2 mi SW 13.8 mph 27.6 mph N/A Fog Light Freezing Fog
1:55 AM 21.2 °F 9.5 °F 17.6 °F 86% 30.18 in 0.5 mi SW 11.5 mph - N/A Fog Light Freezing Fog
2:00 AM 21 °F - 17 °F 80%  in 0 mi SW 11.5 mph - - Fog Heavy Fog
2:55 AM 21.2 °F 8.9 °F 17.6 °F 86% 30.18 in 0.5 mi SW 12.7 mph - N/A Fog Light Freezing Fog
3:55 AM 21.2 °F 12.6 °F 17.6 °F 86% 30.15 in 0.2 mi SW 6.9 mph - N/A Fog Light Freezing Fog
4:55 AM 21.2 °F 11.7 °F 15.8 °F 80% 30.15 in 0.5 mi SW 8.1 mph 23.0 mph N/A Fog Light Freezing Fog
5:00 AM 21 °F - 17 °F 75%  in 0 mi SW 8.1 mph - - Fog Heavy Fog
5:55 AM 21.2 °F 11.7 °F 15.8 °F 80% 30.15 in 0.5 mi SSE 8.1 mph - N/A Fog Light Freezing Fog
6:55 AM 21.2 °F 11.7 °F 15.8 °F 80% 30.12 in 0.5 mi South 8.1 mph - N/A Fog Light Freezing Fog
7:55 AM 21.2 °F 11.7 °F 15.8 °F 80% 30.12 in 0.5 mi SSW 8.1 mph - N/A Fog Light Freezing Fog
8:00 AM 22 °F - 16 °F 69%  in 0 mi SSW 8.1 mph - - Fog Heavy Fog
8:55 AM 21.2 °F - 17.6 °F 86% 30.12 in 0.5 mi ENE 2.3 mph - N/A Fog Light Freezing Fog
9:55 AM 23.0 °F 18.4 °F 10.4 °F 59% 30.12 in 6.2 mi Variable 3.5 mph - N/A   Scattered Clouds
10:55 AM 24.8 °F - 14.0 °F 64% 30.12 in 3.1 mi WSW 2.3 mph - N/A   Mist
11:00 AM 24 °F - 14 °F 52%  in 3 mi WSW 2.3 mph - -   Mist
11:55 AM 24.8 °F 17.9 °F 12.2 °F 59% 30.12 in 4.3 mi NNE 5.8 mph - N/A   Scattered Clouds
12:55 PM 24.8 °F 19.1 °F 14.0 °F 64% 30.12 in 0.6 mi ESE 4.6 mph - N/A   Mist
1:55 PM 26.6 °F 21.2 °F 17.6 °F 69% 30.09 in 0.2 mi SSW 4.6 mph - N/A Fog Light Freezing Fog
2:00 PM 27 °F - 17 °F 53%  in 0 mi SSW 4.6 mph - - Fog Heavy Fog
2:55 PM 26.6 °F 19.1 °F 17.6 °F 69% 30.09 in 0.5 mi SW 6.9 mph - N/A Fog Light Freezing Fog
3:55 PM 26.6 °F 21.2 °F 19.4 °F 74% 30.06 in 0.2 mi SSW 4.6 mph - N/A Fog , Snow Light Snow
4:55 PM 26.6 °F 17.5 °F 17.6 °F 69% 30.06 in 0.5 mi WSW 9.2 mph - N/A Fog , Snow Light Snow
5:00 PM 27 °F - 18 °F 57%  in 0 mi WSW 9.2 mph - - Snow Light Snow
5:55 PM 24.8 °F 14.6 °F 19.4 °F 80% 30.04 in 0.2 mi SW 10.4 mph - N/A Fog , Snow Light Snow
6:55 PM 24.8 °F 16.1 °F 19.4 °F 80% 30.04 in 0.2 mi SSE 8.1 mph - N/A Fog , Snow Light Snow
7:55 PM 24.8 °F 15.3 °F 19.4 °F 80% 30.04 in 0.5 mi SE 9.2 mph - N/A Fog , Snow Light Snow
8:00 PM 25 °F - 19 °F 68%  in 0 mi SE 9.2 mph - - Snow Light Snow
8:55 PM 24.8 °F 16.1 °F 19.4 °F 80% 30.04 in 0.1 mi SW 8.1 mph - N/A Fog , Snow Light Snow
9:55 PM 24.8 °F 17.9 °F 17.6 °F 74% 30.04 in 0.5 mi West 5.8 mph - N/A Fog , Snow Light Snow
10:55 PM 26.6 °F 21.2 °F 19.4 °F 74% 30.01 in 0.5 mi West 4.6 mph - N/A Fog , Snow Light Snow
11:00 PM 26 °F - 19 °F 67%  in 0 mi West 4.6 mph - - Snow Light Snow
11:55 PM 26.6 °F 22.6 °F 19.4 °F 74% 30.01 in 0.1 mi NW 3.5 mph - N/A Fog , Snow Light Snow